Погода в Нердашеве

Россия / Республика Марий Эл     56°42′47″N   48°15′53″E
темп.,
°C
ветер,
м/с
пор.,
м/с
влажн.,
%
обл.,
%
осадки,
мм/ч
давл.,
гПа
погр.,
м
16 сентября, чт
чт1600:00+6зсз5118199 0.1 1006491
03:00+5сз6108197 0.1 1008948
06:00+4зсз5986100 0.1 1009720
09:00+5сз5885100 0.2 1010728
12:00+6сз6882100 0.2 1011882
15:00+6сз5886100 0.4 1012933
18:00+6сз5108565 0.0 1013350
21:00+6ссз4983100 0.1 1013511
17 сентября, пт
пт1700:00+6зсз4983100 0.1 1013357
03:00+5зсз4976100 0.1 1014361
06:00+5сз4873100 0.1 1014353
09:00+7ссз576076 0.2 10151075
12:00+8сз574997 0.1 10151360
15:00+8сз5754100 0.1 10151352
18:00+7сз3662100 0.2 1016210
21:00+3ссз228015 0.2 101625
18 сентября, сб
сб1800:00+2ссз369667 0.0 1017123
03:00+4сз4788100 0.1 1017838
06:00+4ссз4991100 0.1 1019728
09:00+6с6864100 0.2 10201275
12:00+7с5649100 0.0 10211572
15:00+7ссз5751100 0.0 10221636
18:00+6ссз4863100 0.1 1022748
21:00+3с5970100 0.1 1024693
19 сентября, вс
вс1900:00+4с5854100 0.0 10241127
03:00+3сз386052 0.0 1024261
06:000сз38755 0.0 1025180
09:00+6ссз46575 0.0 1026803
12:00+9ссз45455 0.0 10261323
15:00+10ссз454319 0.0 10261528
18:00+5с336174 0.0 102625
21:00+2всв4107874 0.0 1028256
20 сентября, пн
пн2000:000св3583100 0.0 1029108
03:000всв3580100 0.0 1029107
06:000всв3578100 0.0 1030115
09:00+5в4555100 0.0 1030896
12:00+7в4448100 0.0 10301163
15:00+8в4546100 0.0 10291242
18:00+5в346072 0.0 102963
21:00+2в3771100 0.0 1029123